Home   Weather   Jersey City   Past weeks

Flag for USA Past Weather in Jersey City, New Jersey, USA — Yesterday and Last 2 Weeks

Now
27 °F

Passing clouds.


Feels Like: 23 °F
Forecast: 23 / 38 °F
Wind: 3 mph from Southwest

Location: Newark International Airport

Current Time: Dec 11, 2016 at 5:07:25 am

Latest Report: Dec 11, 2016 at 3:51 am


Visibility: 10 mi

Pressure: 30.50 "Hg

Humidity: 63%

Dew Point: 16 °F

Location of Jersey CityLocation

Past Weather in Jersey City — Graph

°F

Jersey City Temperature Yesterday

Maximum temperature yesterday: 36 °F (at 11:51 am)
Minimum temperature yesterday: 25 °F (at 5:51 am)
Average temperature yesterday: 31 °F

High & Low Weather Summary for the Past Weeks

 TemperatureHumidityPressure
High60 °F (Nov 29, 3:51 pm)100% (Nov 29, 6:51 pm)30.50 "Hg (Nov 29, 6:51 pm)
Low25 °F (Dec 10, 5:51 am)31% (Dec 9, 3:51 pm)29.46 "Hg (Dec 1, 2:51 am)
Average44 °F65%30.03 "Hg
* Reported Nov 26 3:51 am — Dec 11 3:51 am, Jersey City, Weather by CustomWeather, © 2016

Note: Actual official high and low records may vary slightly from our data, if they occured in-between our weather recording intervals... More about our weather records

Advertising

Jersey City Weather History for the Previous 24 Hours

Scroll right to see more
 ConditionsComfort  
Time TempWeatherWind HumidityBarometerVisibility
3:51 am
Sun, Dec 11
27 °FPassing clouds.3 mph63%30.50 "Hg10 mi
2:51 am27 °FPassing clouds.5 mph63%30.49 "Hg10 mi
1:51 am27 °FPassing clouds.7 mph63%30.48 "Hg10 mi
12:51 am27 °FPassing clouds.6 mph63%30.47 "Hg10 mi
11:51 pm
Sat, Dec 10
28 °FPassing clouds.3 mph61%30.46 "Hg10 mi
10:51 pm29 °FClear.5 mph58%30.47 "Hg10 mi
9:51 pm29 °FClear.7 mph58%30.45 "Hg10 mi
8:51 pm30 °FPassing clouds.8 mph56%30.44 "Hg10 mi
7:51 pm31 °FPassing clouds.12 mph52%30.44 "Hg10 mi
6:51 pm32 °FPassing clouds.12 mph52%30.42 "Hg10 mi
5:51 pm32 °FPassing clouds.8 mph54%30.40 "Hg10 mi
4:51 pm33 °FPassing clouds.12 mph52%30.39 "Hg10 mi
3:51 pm35 °FScattered clouds.15 mph44%30.36 "Hg10 mi
2:51 pm35 °FPartly sunny.12 mph48%30.35 "Hg10 mi
1:51 pm36 °FMostly cloudy.14 mph44%30.34 "Hg10 mi
12:51 pm36 °FPartly sunny.13 mph48%30.34 "Hg10 mi
11:51 am36 °FBroken clouds.15 mph48%30.37 "Hg10 mi
10:51 am34 °FBroken clouds.14 mph59%30.39 "Hg10 mi
9:51 am33 °FBroken clouds.13 mph63%30.41 "Hg10 mi
8:51 am30 °FPartly sunny.10 mph72%30.40 "Hg10 mi
7:51 am28 °FPartly sunny.7 mph75%30.39 "Hg10 mi
6:51 am27 °FPassing clouds.8 mph72%30.38 "Hg10 mi
5:51 am25 °FPassing clouds.5 mph72%30.36 "Hg10 mi
Weather by CustomWeather, © 2016

See weather overviewHow to use our weather pages